Regional Weather Roundup
Issued by NWS Little Rock, AR

Home | Current Version | Previous Version | Graphics & Text | Print | Product List | Glossary On
Versions: 1 2 3 4 5 6 7 8 9 10 11 12 13 14 15 16 17 18 19 20 21 22 23 24 25 26 27 28 29 30 31 32 33 34 35 36 37 38 39 40 41 42 43 44 45 46
000
ASUS44 KLZK 010505
RWRLZK

WEATHER ROUNDUP FOR ARKANSAS
NATIONAL WEATHER SERVICE LITTLE ROCK AR
1200 AM CDT SAT AUG 01 2015

NOTE: "FAIR" INDICATES FEW OR NO CLOUDS BELOW 12,000 FEET WITH NO
SIGNIFICANT WEATHER AND/OR OBSTRUCTIONS TO VISIBILITY.

ARZ001-003-010-029-010600-
NORTHWEST ARKANSAS

CITY           SKY/WX    TMP DP  RH WIND       PRES   REMARKS
FAYETTEVILLE   MOCLDY    67  65  93 CALM      30.13R
FORT SMITH     CLOUDY    77  67  71 E3        30.07R
HARRISON       PTCLDY    70  63  78 W5        30.14R
BENTONVILLE    PTCLDY    73  61  64 E5        30.13S
ROGERS         PTCLDY    72  63  73 E3        30.14R
SILOAM SPGS    MOCLDY    70  61  73 E3        30.11S
HIGHFILL       MOCLDY    70  63  78 CALM      30.13R
$$

ARZ004-005-016-010600-
NORTH CENTRAL ARKANSAS

CITY           SKY/WX    TMP DP  RH WIND       PRES   REMARKS
BATESVILLE     MOCLDY    72  68  88 CALM      30.08S
FLIPPIN        PTCLDY    72  64  78 CALM      30.09R
MTN HOME       PTCLDY    73  67  81 CALM      30.10S
$$

ARZ040-041-010600-
WEST CENTRAL ARKANSAS

CITY           SKY/WX    TMP DP  RH WIND       PRES   REMARKS
MENA           MOCLDY    70  66  88 CALM      30.11S
MOUNT IDA      MOCLDY    70  67  90 CALM      30.08S
$$

ARZ009-017-025-026-028-010600-
NORTHEAST ARKANSAS

CITY           SKY/WX    TMP DP  RH WIND       PRES   REMARKS
JONESBORO      CLEAR     72  69  90 CALM      30.06S
NEWPORT        PTCLDY    78  69  73 W3        30.07F
WALNUT RIDGE   CLEAR     77  68  73 W3        30.07R
BLYTHEVILLE    CLEAR     74  69  85 CALM      30.05F
$$

ARZ022-023-033-042-044-010600-
CENTRAL ARKANSAS

CITY           SKY/WX    TMP DP  RH WIND       PRES   REMARKS
LITTLE ROCK    MOCLDY    79  66  64 CALM      30.07S
N LITTLE ROCK  MOCLDY    76  66  71 N3        30.07S
JACKSONVILLE   PTCLDY    73  68  83 W2        30.07S
SEARCY         PTCLDY    72  69  90 CALM      30.08S
HOT SPRINGS    PTCLDY    76  64  66 CALM      30.08S
RUSSELLVILLE   MOCLDY    73  68  84 CALM      30.08R
$$

ARZ036-010600-
EAST ARKANSAS

CITY           SKY/WX    TMP DP  RH WIND       PRES   REMARKS
WEST MEMPHIS   CLEAR     74  70  87 CALM      30.04S
$$

ARZ050-053-066-070-073-010600-
SOUTHWEST ARKANSAS

CITY           SKY/WX    TMP DP  RH WIND       PRES   REMARKS
ARKADELPHIA    FAIR      72  70  93 CALM      30.06F
CAMDEN         PTCLDY    70  64  83 CALM      30.05R
TEXARKANA      MOCLDY    75  64  68 E3        30.05F
EL DORADO      PTCLDY    73  65  75 NW3       30.05S
DE QUEEN       MOCLDY    71  70  96 CALM      30.05S
$$

ARZ056-057-069-010600-
SOUTHEAST ARKANSAS

CITY           SKY/WX    TMP DP  RH WIND       PRES   REMARKS
PINE BLUFF     CLEAR     74  66  76 N6        30.06R
STUTTGART      CLEAR     73  66  78 MISG      30.05S
MONTICELLO     CLEAR     77  68  73 CALM      30.04S

$$




USA.gov is the U.S. government's official web portal to all federal, state and local government web resources and services.